Date String (YYYY-MM-DD hh:mm:ss) UTC,Instrument flags,Ambient pressure (hPa),Sample flow (lpm),Bypass flow (lpm),Sample temperature (°C),Ambient temperature (°C),ASC tube jacket temperature (°C),LED temperature (°C),Box temperature (°C),Sample RH (%),Span deviation,Mass concentration (μg/m³),Mass concentration (μg/m³),Mass concentration (μg/m³)
DateTimeUTC,F1_M11,P_M11,Q1_M11,Q2_M11,T1_M11,T2_M11,T3_M11,T4_M11,T5_M11,U1_M11,ZSPAN_M11,X2_M11,X0_M11,X1_M11
2023-05-02 01:00:00,,0826.6,5.00,0.00,30.6,29.1,00.0,38.8,32.2,13.5,0005.8,0009.89,0028.06,0007.03
2023-05-02 01:01:00,,0826.5,4.98,0.00,30.5,27.3,00.0,38.7,31.9,13.0,0004.4,0009.75,0029.47,0006.92
2023-05-02 01:02:00,,0826.5,5.02,0.00,30.5,26.4,00.0,38.6,31.8,12.9,0004.1,0009.67,0028.80,0006.77
2023-05-02 01:03:00,,0826.5,5.01,0.00,30.4,26.4,00.0,38.6,31.6,13.0,0001.3,0009.54,0027.70,0006.65
2023-05-02 01:04:00,,0826.5,4.99,0.00,30.3,26.7,00.0,38.6,31.6,13.1,0000.0,0009.34,0028.47,0006.49
2023-05-02 01:05:00,,0826.5,5.00,0.00,30.2,27.1,00.0,38.6,31.6,13.1,0000.0,0009.30,0028.63,0006.33
2023-05-02 01:06:00,,0826.6,5.01,0.00,30.2,27.4,00.0,38.6,31.7,13.3,0000.0,0009.24,0028.90,0006.18
2023-05-02 01:07:00,,0826.6,5.00,0.00,30.2,27.7,00.0,38.6,31.7,13.1,0000.0,0009.05,0027.44,0006.03
2023-05-02 01:08:00,,0826.6,4.99,0.00,30.2,28.0,00.0,38.6,31.8,13.1,0000.0,0008.92,0026.36,0005.91
2023-05-02 01:09:00,,0826.6,5.00,0.00,30.3,28.2,00.0,38.6,31.8,13.2,0000.0,0008.80,0027.73,0005.78
2023-05-02 01:10:00,,0826.6,5.00,0.00,30.3,28.4,00.0,38.6,31.8,13.2,0000.0,0008.67,0029.94,0005.62
2023-05-02 01:11:00,,0826.6,5.01,0.00,30.3,28.6,00.0,38.6,31.9,13.2,0000.0,0008.61,0030.54,0005.51
2023-05-02 01:12:00,,0826.6,5.00,0.00,30.3,28.7,00.0,38.6,31.9,13.1,0000.0,0008.58,0030.55,0005.43
2023-05-02 01:13:00,,0826.6,4.98,0.00,30.3,28.8,00.0,38.7,31.9,13.2,0000.0,0008.51,0032.38,0005.40
2023-05-02 01:14:00,,0826.6,5.00,0.00,30.4,28.9,00.0,38.7,32.0,13.3,0000.0,0008.33,0033.11,0005.34
2023-05-02 01:15:00,,0826.6,5.00,0.00,30.4,29.0,00.0,38.7,32.0,13.2,0000.0,0008.26,0032.02,0005.30
2023-05-02 01:16:00,,0826.6,5.00,0.00,30.4,29.1,00.0,38.7,32.0,13.2,0000.0,0008.23,0032.02,0005.25
2023-05-02 01:17:00,,0826.6,5.00,0.00,30.4,29.2,00.0,38.7,32.1,13.2,0000.0,0008.16,0032.55,0005.19
2023-05-02 01:18:00,,0826.6,5.01,0.00,30.5,29.2,00.0,38.7,32.1,13.2,0000.0,0008.09,0032.78,0005.11
2023-05-02 01:19:00,,0826.5,5.00,0.00,30.5,29.3,00.0,38.8,32.1,13.2,0000.0,0008.08,0033.89,0005.06
2023-05-02 01:20:00,,0826.6,4.99,0.00,30.5,29.3,00.0,38.8,32.2,13.2,0000.0,0008.13,0034.00,0005.02
2023-05-02 01:21:00,,0826.6,4.99,0.00,30.5,29.4,00.0,38.8,32.2,13.2,0000.0,0008.12,0031.70,0004.96
2023-05-02 01:22:00,,0826.6,5.01,0.00,30.6,29.4,00.0,38.8,32.2,13.1,0000.0,0008.05,0030.46,0004.91
2023-05-02 01:23:00,,0826.6,4.98,0.00,30.6,28.1,00.0,38.8,32.1,13.1,0000.0,0008.00,0028.99,0004.84
2023-05-02 01:24:00,,0826.5,5.01,0.00,30.5,25.9,00.0,38.7,31.7,13.2,0000.0,0007.93,0027.71,0004.78
2023-05-02 01:25:00,,0826.6,5.01,0.00,30.4,25.2,00.0,38.5,31.5,13.2,0000.0,0008.02,0027.86,0004.75
2023-05-02 01:26:00,,0826.6,5.00,0.00,30.2,25.5,00.0,38.5,31.3,13.3,0000.0,0008.06,0028.12,0004.72
2023-05-02 01:27:00,,0826.6,4.98,0.00,30.1,25.9,00.0,38.5,31.3,13.5,0000.0,0007.97,0028.43,0004.68
2023-05-02 01:28:00,,0826.6,5.00,0.00,30.1,26.3,00.0,38.5,31.4,13.5,0000.0,0007.89,0027.38,0004.66
2023-05-02 01:29:00,,0826.6,5.02,0.00,30.0,26.8,00.0,38.5,31.4,13.5,0000.0,0007.89,0027.10,0004.65
2023-05-02 01:30:00,,0826.6,4.98,0.00,30.0,27.1,00.0,38.5,31.5,13.4,0000.0,0007.84,0026.40,0004.61
2023-05-02 01:31:00,,0826.6,5.00,0.00,30.0,27.5,00.0,38.5,31.5,13.4,0000.0,0007.67,0024.75,0004.56
2023-05-02 01:32:00,,0826.6,5.01,0.00,30.0,27.8,00.0,38.5,31.5,13.6,0000.0,0007.52,0023.79,0004.52
2023-05-02 01:33:00,,0826.6,5.01,0.00,30.1,28.0,00.0,38.5,31.6,13.5,0000.0,0007.50,0025.24,0004.47
2023-05-02 01:34:00,,0826.6,5.00,0.00,30.1,28.2,00.0,38.5,31.7,13.4,0000.0,0007.40,0025.67,0004.44
2023-05-02 01:35:00,,0826.6,4.98,0.00,30.1,28.4,00.0,38.5,31.7,13.4,0000.0,0007.34,0025.08,0004.41
2023-05-02 01:36:00,,0826.6,5.00,0.00,30.1,28.5,00.0,38.5,31.7,13.4,0000.0,0007.29,0024.39,0004.37
2023-05-02 01:37:00,,0826.6,5.01,0.00,30.1,28.6,00.0,38.5,31.8,13.3,0000.0,0007.16,0024.67,0004.33
2023-05-02 01:38:00,,0826.6,5.01,0.00,30.2,28.7,00.0,38.5,31.8,13.2,0000.0,0007.05,0024.22,0004.29
2023-05-02 01:39:00,,0826.6,5.00,0.00,30.2,28.8,00.0,38.5,31.8,13.3,0000.0,0006.97,0025.42,0004.26
2023-05-02 01:40:00,,0826.6,4.98,0.00,30.2,28.9,00.0,38.5,31.9,13.2,0000.0,0006.90,0026.85,0004.23
2023-05-02 01:41:00,,0826.6,5.01,0.00,30.2,28.9,00.0,38.5,31.9,13.1,0000.0,0006.93,0026.62,0004.23
2023-05-02 01:42:00,,0826.6,5.01,0.00,30.3,29.0,00.0,38.6,31.9,13.1,0000.0,0006.92,0026.05,0004.23
2023-05-02 01:43:00,,0826.7,4.99,0.00,30.3,29.0,00.0,38.6,31.9,13.2,0000.0,0006.91,0025.84,0004.23
2023-05-02 01:44:00,,0826.7,5.00,0.00,30.3,29.1,00.0,38.6,32.0,13.1,0000.0,0006.79,0023.43,0004.20
2023-05-02 01:45:00,,0826.8,5.00,0.00,30.3,29.1,00.0,38.6,32.0,13.1,0000.0,0006.81,0022.06,0004.20
2023-05-02 01:46:00,,0826.7,5.01,0.00,30.4,29.2,00.0,38.6,32.0,13.1,0000.0,0006.82,0022.80,0004.20
2023-05-02 01:47:00,,0826.8,5.00,0.00,30.4,29.2,00.0,38.7,32.1,13.1,0000.0,0006.72,0022.24,0004.18
2023-05-02 01:48:00,,0826.8,4.98,0.00,30.4,29.2,00.0,38.7,32.1,13.1,0000.0,0006.70,0021.49,0004.16
2023-05-02 01:49:00,,0826.8,5.01,0.00,30.5,29.3,00.0,38.7,32.1,13.0,0000.0,0006.73,0021.12,0004.16
2023-05-02 01:50:00,,0826.8,5.01,0.00,30.5,29.3,00.0,38.7,32.1,13.0,0000.0,0006.75,0020.61,0004.15
2023-05-02 01:51:00,,0826.8,5.00,0.00,30.5,29.3,00.0,38.8,32.2,12.9,0000.0,0006.79,0020.03,0004.14
2023-05-02 01:52:00,,0826.8,4.99,0.00,30.5,29.4,00.0,38.8,32.2,12.9,0000.0,0006.73,0020.57,0004.13
2023-05-02 01:53:00,,0826.8,4.99,0.00,30.6,29.4,00.0,38.8,32.2,12.9,0000.0,0006.74,0021.14,0004.12
2023-05-02 01:54:00,,0826.7,4.99,0.00,30.6,29.4,00.0,38.8,32.2,12.9,0000.0,0006.82,0021.55,0004.11
2023-05-02 01:55:00,,0826.7,5.00,0.00,30.6,29.1,00.0,38.8,32.2,12.9,0000.0,0006.87,0021.75,0004.12
2023-05-02 01:56:00,,0826.8,5.00,0.00,30.6,27.1,00.0,38.7,31.9,12.9,0000.0,0006.90,0022.09,0004.12
2023-05-02 01:57:00,,0826.7,5.00,0.00,30.5,26.3,00.0,38.7,31.7,12.9,0000.0,0006.99,0022.97,0004.12
2023-05-02 01:58:00,,0826.7,5.01,0.00,30.4,26.3,00.0,38.7,31.6,13.0,0000.0,0007.00,0022.55,0004.13
2023-05-02 01:59:00,,0826.7,5.01,0.00,30.3,26.6,00.0,38.7,31.6,13.0,0000.0,0007.01,0022.61,0004.14
